Weather in Shishkino

Russia / Zabaykalsky Krai     52°18′34″N   113°34′54″E
temp.,
°C
wind,
m/s
gust,
m/s
humid.,
%
clouds,
%
prec.,
mm/h
press.,
hPa
HPBL,
m
16 april, fri
fri1600:00−2nw34472 0.1 101497
03:00−4nw22544 0.1 101624
06:00−6nw22542 0.0 101820
09:00−1nw24422 0.0 1018525
12:00+4nnw451912 0.0 10172339
15:00+6wnw461619 0.0 10152666
18:00+7wnw67206 0.0 10132254
21:00+2wnw34405 0.0 1015103
17 april, sat
sat1700:00−1sw22515 0.0 101536
03:00−2sw22615 0.0 101526
06:00−3ssw226556 0.0 101429
09:00+2ssw23465 0.0 1013353
12:00+11wsw5822100 0.0 10071467
15:00+14wsw68217 0.0 10042280
18:00+14w68214 0.0 10032333
21:00+8w22335 0.0 100423
18 april, sun
sun1800:00+5nnw114241 0.0 100510
03:00+3ene0052100 0.0 100510
06:00+2ese0055100 0.0 100610
09:00+6nw2344100 0.0 1006361
12:00+7nnw675595 0.0 10081177
15:00+9nw592971 0.1 10072337
18:00+9nw810222 0.0 10082750
21:00+2nnw59514 0.0 1015563
19 april, mon
mon1900:00−1nnw37526 0.0 1019282
03:00−4nnw24711 0.0 1022119
06:00−6n22762 0.0 102442
09:00−2ene22453 0.0 1024620
12:00+3sse222359 0.0 10211381
15:00+6s3422100 0.0 10161853
18:00+8se4725100 0.0 10131731
21:00+6se613328 0.0 1012560
20 april, tue
tue2000:00+4se483329 0.0 1011286
03:000se22475 0.0 101013
06:00−1sse115099 0.0 100910
09:00+4nnw124196 0.0 1009254
12:00+9nnw2239100 0.0 1007730
15:00+13nnw452969 0.0 10061928
18:00+10nnw664574 0.0 1008946
21:00+5nne2261100 0.0 101141